Vorticity
nan nan nan nan nan nan nan nan nan nan nan nan nan nan nan nan nan nan nan nan nan nan nan nan nan nan nan nan nan nan nan nan nan nan nan nan nan nan nan nan nan nan nan nan nan nan nan nan nan nan nan nan nan nan nan nan nan nan nan nan nan nan nan nan nan nan nan nan nan
nan 7 6 5 5 6 7 8 8 7 6 7 8 8 8 9 9 9 10 9 8 8 8 9 8 7 8 8 8 9 9 10 10 9 10 9 8 7 4 3 3 3 2 3 2 2 5 5 3 3 6 9 10 9 8 9 10 11 11 8 8 11 13 13 12 12 12 11 nan
nan 10 9 7 5 4 4 7 7 7 6 6 7 8 8 8 9 10 11 10 9 8 8 8 10 10 11 10 9 9 10 11 12 10 10 11 11 9 6 5 6 6 6 5 2 2 5 5 3 4 6 8 9 8 9 10 11 11 12 11 8 9 10 12 13 13 13 14 nan
nan 11 11 10 8 5 4 5 6 7 7 8 8 8 9 9 9 9 9 10 11 10 9 7 9 12 14 14 11 9 8 10 11 10 9 11 12 10 8 7 7 8 8 7 6 5 5 3 2 5 8 9 8 7 8 11 10 9 10 11 9 9 8 9 11 11 11 12 nan
nan 11 11 11 11 10 8 7 6 7 8 8 8 8 8 9 8 8 8 10 11 10 9 8 10 12 15 15 14 11 10 9 8 8 9 10 11 11 10 9 8 7 7 8 8 7 7 3 2 7 10 9 8 9 11 10 8 6 5 8 9 9 9 8 9 10 10 9 nan
nan 11 10 10 11 12 12 10 10 9 9 8 6 5 5 6 6 6 6 8 9 9 11 12 12 13 14 16 15 14 13 12 10 8 8 8 9 11 11 10 8 6 7 8 9 8 8 3 2 7 10 11 11 12 12 10 7 6 5 6 9 9 10 8 9 10 10 9 nan
nan 11 12 11 12 12 11 10 12 12 11 10 9 7 4 3 3 3 4 6 9 12 14 15 13 12 12 13 13 13 12 12 11 10 8 8 9 10 11 10 8 6 7 8 8 8 8 4 3 7 9 10 13 15 14 9 7 7 7 6 7 9 11 10 8 10 11 10 nan
nan 11 11 11 12 12 11 11 11 11 11 10 10 9 7 6 5 5 7 9 10 12 13 14 13 10 9 9 10 10 10 9 9 9 9 9 10 11 11 10 9 8 7 8 8 8 6 5 6 8 9 9 11 15 16 11 7 6 7 5 6 8 10 11 9 9 11 11 nan
nan 10 10 10 11 11 11 12 11 10 9 7 8 9 10 10 10 10 11 11 11 11 11 12 12 10 8 6 7 7 7 7 7 7 7 8 9 9 10 11 11 10 9 11 13 11 6 4 8 9 9 9 10 12 14 13 9 7 6 7 8 8 8 9 9 9 10 11 nan
nan 10 11 11 10 10 10 12 12 12 11 10 10 11 12 12 12 12 12 10 9 9 8 10 11 11 9 7 5 5 5 6 7 7 6 7 8 8 8 9 11 11 10 12 15 14 9 6 9 10 10 11 12 12 12 11 10 8 5 8 11 10 8 7 9 9 10 10 nan
nan 12 12 11 10 10 11 12 13 13 13 11 11 12 12 13 12 12 10 8 8 8 8 8 10 10 10 10 8 7 6 6 7 8 8 7 7 8 7 7 8 8 8 8 10 11 9 8 10 10 9 10 13 13 12 11 10 9 6 7 11 10 8 6 7 8 10 11 nan
nan 12 13 12 11 11 12 12 12 11 11 10 11 12 12 12 11 11 10 9 10 10 11 10 10 10 9 10 11 10 10 10 9 9 10 10 9 8 8 7 8 7 7 5 5 6 8 9 9 9 7 5 8 12 15 13 10 9 8 8 9 9 9 7 6 7 9 11 nan
nan 12 12 12 13 13 14 13 12 11 10 9 10 11 11 10 11 12 12 12 13 13 13 13 13 11 10 7 8 9 10 12 11 10 10 11 11 11 9 9 9 8 7 6 4 5 7 9 9 8 7 3 4 9 13 12 9 9 9 8 8 8 9 8 7 7 8 10 nan
nan 11 11 11 13 15 15 14 13 11 10 9 11 11 11 11 11 12 13 13 13 12 13 14 15 14 12 8 7 7 7 9 10 9 9 10 11 11 10 10 10 8 7 7 8 7 6 7 9 8 8 5 5 8 11 10 8 9 9 9 7 7 8 8 8 8 9 10 nan
nan 11 11 12 13 14 13 14 13 11 10 10 11 11 11 11 12 12 11 11 13 13 13 13 14 14 13 12 10 9 8 8 8 9 9 9 10 10 9 10 10 9 7 8 9 10 9 8 8 8 8 8 8 8 9 9 8 9 9 9 9 8 8 9 8 7 8 8 nan
nan 11 11 12 12 12 12 13 12 10 9 9 9 9 10 11 11 11 10 11 12 13 12 11 12 13 14 15 15 13 12 10 10 10 9 9 10 9 9 9 10 10 9 8 8 9 10 9 9 9 9 9 9 9 9 8 8 9 9 9 9 8 8 8 7 7 6 7 nan
nan 10 10 10 11 11 12 12 10 9 7 7 7 9 10 10 10 10 10 11 10 9 9 10 11 12 12 14 15 15 15 14 13 12 11 10 10 9 9 9 10 10 10 9 8 8 9 9 9 11 11 11 11 11 10 9 8 9 9 8 8 7 7 6 6 5 6 6 nan
nan 9 9 9 9 10 11 11 11 9 8 9 9 10 9 8 7 8 9 10 8 8 8 10 11 11 11 11 12 13 15 15 14 13 12 12 12 11 11 11 11 11 10 10 9 9 9 9 9 9 11 12 12 11 11 9 8 9 8 7 7 6 6 5 5 4 5 6 nan
nan 8 8 8 9 9 10 11 11 11 11 12 11 10 8 7 7 8 8 9 9 9 10 11 11 11 11 11 10 10 12 15 14 13 12 13 13 13 13 12 12 11 11 9 9 9 9 10 9 9 9 10 11 11 10 9 8 9 9 8 8 7 6 6 5 4 4 4 nan
nan 8 8 9 9 9 9 10 10 11 12 11 10 10 9 9 9 9 8 9 9 10 11 12 11 11 11 12 11 9 9 13 15 14 14 14 14 14 14 13 12 12 11 11 10 10 10 10 10 9 9 9 9 9 9 9 9 9 8 9 9 9 7 6 5 4 3 3 nan
nan 8 9 9 10 10 10 10 10 10 11 10 10 11 11 11 11 11 10 10 10 11 12 12 11 11 11 12 12 10 8 11 14 14 13 13 13 13 12 13 12 11 11 12 12 12 11 11 10 9 10 10 9 9 8 8 9 9 7 7 9 9 8 6 5 4 4 5 nan
nan 8 9 10 10 10 10 10 10 11 11 11 11 11 12 12 11 11 11 12 12 13 12 13 12 12 12 12 13 11 8 9 12 12 12 11 12 12 12 12 12 10 10 11 12 12 12 11 11 10 9 10 10 10 8 7 8 8 8 6 7 7 7 6 5 6 6 7 nan
nan 9 10 10 9 9 10 11 11 11 11 11 11 12 12 12 11 11 12 12 13 12 12 13 14 14 13 13 13 11 9 8 10 11 11 10 11 12 12 12 12 10 9 9 11 12 12 13 13 11 10 10 11 10 9 7 6 7 8 7 5 5 5 5 5 6 6 7 nan
nan 10 11 9 6 9 10 11 11 11 11 11 11 12 12 11 12 12 12 12 11 11 11 11 12 14 15 14 13 11 10 8 8 9 10 10 10 11 10 11 11 10 8 9 11 11 9 10 12 12 11 11 11 10 9 7 6 6 6 6 4 4 4 4 4 4 5 7 nan
nan 9 9 7 7 9 10 10 10 10 10 11 11 12 12 12 12 12 12 11 11 11 11 10 11 13 15 16 14 12 11 10 9 8 8 9 9 8 7 8 9 9 9 12 14 12 6 3 5 8 10 10 10 9 10 9 7 5 4 4 3 3 3 4 5 5 7 9 nan
nan 9 8 8 8 8 9 9 10 10 10 11 11 12 12 13 13 12 11 11 11 11 12 13 13 14 15 15 14 13 11 11 10 9 8 8 8 6 4 5 7 8 11 16 18 14 8 2 1 2 5 8 9 8 9 10 9 6 5 4 3 3 3 5 7 8 10 12 nan
nan 9 8 8 8 8 8 9 9 9 10 10 11 12 13 13 12 11 11 11 11 11 13 14 15 16 16 16 15 12 9 8 10 9 8 7 7 6 3 3 5 7 13 18 19 15 10 5 2 -0 -1 4 8 7 6 8 9 8 7 7 7 6 6 7 9 11 13 14 nan
nan 8 8 8 8 8 8 9 9 9 9 10 11 11 12 12 11 12 12 11 11 12 13 15 16 16 16 16 16 13 10 7 8 9 10 9 8 7 4 3 5 8 14 18 18 14 10 7 4 1 -3 -2 3 7 8 7 8 9 10 10 11 11 11 12 13 14 15 15 nan
nan 9 8 8 8 8 9 9 9 9 10 11 11 11 11 12 12 12 12 11 11 12 13 13 14 13 11 11 13 13 13 10 8 9 10 11 9 8 6 5 6 10 16 18 15 13 10 8 7 4 -1 -8 -6 3 8 9 10 10 10 11 12 12 12 12 12 12 13 15 nan
nan 9 9 8 9 9 9 8 8 9 11 12 11 10 10 11 11 12 12 12 13 12 11 8 7 6 6 8 10 11 12 12 10 10 10 10 9 8 8 7 7 11 17 17 14 12 10 9 8 6 3 -6 -10 -3 4 8 9 9 9 10 10 10 10 11 11 9 9 10 nan
nan 9 9 9 9 9 9 8 9 10 11 10 9 10 10 10 10 11 12 13 13 11 9 7 6 6 7 8 8 9 10 10 10 10 11 11 10 9 9 8 7 10 17 18 13 11 9 8 7 6 5 -3 -8 -4 1 6 7 7 7 8 8 9 9 12 13 11 9 7 nan
nan 9 9 9 9 9 9 8 9 10 10 10 10 10 10 10 11 12 12 12 11 11 10 10 10 10 10 10 10 9 9 9 9 9 10 10 10 10 9 10 11 11 17 18 13 10 9 7 6 6 6 0 -4 -1 2 5 7 7 8 8 9 9 8 8 11 13 12 9 nan
nan 9 9 9 9 9 9 9 9 9 10 11 11 11 11 11 12 12 12 12 12 12 12 12 12 13 13 13 12 12 11 11 11 9 8 8 9 9 9 9 13 17 20 18 13 10 9 7 6 6 6 1 0 4 6 5 6 8 9 11 12 12 11 8 8 11 12 11 nan
nan 9 9 9 9 9 9 9 9 9 10 10 11 11 12 12 12 12 12 12 11 12 12 12 13 13 13 13 13 13 12 11 12 11 10 10 10 9 6 4 10 19 22 19 13 10 9 7 7 7 7 1 0 6 9 6 5 6 7 9 11 12 12 12 10 11 12 12 nan
nan 9 9 9 9 9 8 8 9 9 9 10 10 11 12 12 13 13 13 12 10 10 10 11 11 12 12 12 13 13 12 10 10 11 11 11 10 9 6 3 6 14 18 17 13 10 9 8 7 7 5 1 1 7 10 11 9 9 9 9 10 11 11 11 12 12 13 13 nan
nan 9 8 8 8 8 8 8 8 9 9 9 9 10 11 12 14 15 15 14 12 11 10 10 10 11 11 11 12 13 13 12 11 11 11 11 11 10 8 6 7 12 16 15 12 10 9 7 7 6 2 -0 2 7 10 12 13 15 14 12 12 12 11 11 12 12 12 13 nan
nan 9 9 9 9 9 9 9 8 8 8 8 9 10 10 12 14 15 16 16 14 12 11 11 10 11 11 11 11 12 13 13 13 13 13 13 12 11 10 8 9 13 17 16 12 10 9 7 6 4 -1 -1 3 7 9 11 13 16 17 16 15 14 12 12 14 14 14 12 nan
nan 9 9 10 9 9 9 9 8 8 8 8 9 10 10 12 14 15 16 15 14 13 12 12 11 11 12 12 12 13 14 14 14 14 14 14 14 13 11 10 10 13 18 19 14 11 9 7 6 2 -3 -1 4 6 9 11 11 13 14 16 17 16 12 11 15 17 17 14 nan
nan 10 10 10 10 10 10 9 9 9 10 10 10 10 10 11 12 12 14 14 14 13 13 12 11 11 13 13 13 14 15 15 16 15 15 14 14 13 12 11 10 11 16 19 16 13 10 8 7 4 -3 -2 4 6 8 11 12 12 11 12 14 16 14 11 12 14 18 18 nan
nan 10 10 11 11 11 11 10 10 10 10 10 9 10 12 12 11 11 12 14 15 15 15 15 13 11 12 13 13 13 14 13 13 14 14 13 14 13 12 10 9 10 14 18 17 14 11 9 7 4 -4 -3 4 6 8 11 13 12 10 9 11 13 14 12 10 12 15 18 nan
nan nan nan nan nan nan nan nan nan nan nan nan nan nan nan nan nan nan nan nan nan nan nan nan nan nan nan nan nan nan nan nan nan nan nan nan nan nan nan nan nan nan nan nan nan nan nan nan nan nan nan nan nan nan nan nan nan nan nan nan nan nan nan nan nan nan nan nan nan
CAPE
330 289 289 221 174 174 178 160 109 109 125 132 118 116 116 105 95 91 91 99 91 89 89 72 41 16 16 3 3 3 3 3 3 2 2 3 3 2 2 1 nan 0 0 1 0 0 0 0 1 1 1 2 4 6 6 12 7 2 2 1 nan nan nan nan nan nan nan nan nan
353 330 330 190 148 148 189 168 148 148 143 160 156 133 133 120 118 143 143 125 105 105 105 87 81 57 57 6 2 2 3 3 5 4 4 4 1 3 3 2 nan nan nan 0 nan nan 0 1 1 1 1 2 2 5 5 9 8 3 3 1 0 nan nan nan nan nan nan nan 0
327 303 303 281 247 247 198 203 220 220 224 216 183 168 168 132 117 112 112 137 134 103 103 87 86 72 72 19 1 1 1 3 5 5 5 3 1 3 3 2 0 nan nan nan nan nan 1 1 1 1 1 2 2 3 3 5 6 6 6 3 0 nan nan 0 nan nan 0 2 3
257 282 282 275 267 267 228 191 240 240 273 248 238 179 179 109 84 70 70 93 111 101 101 95 59 50 50 13 0 0 1 1 4 5 5 3 1 1 1 2 2 1 1 1 1 1 0 1 1 1 1 2 1 1 1 0 2 4 4 5 0 1 1 1 1 1 2 4 5
60 99 99 151 194 194 216 207 213 213 219 222 227 153 153 105 62 45 45 38 46 59 59 81 66 31 31 7 1 1 1 2 1 4 4 2 1 1 1 3 2 2 2 1 0 0 0 2 1 1 1 2 0 0 0 nan 2 1 1 0 0 2 2 2 3 3 5 4 5
nan nan nan 1 20 20 51 84 113 113 98 94 112 131 131 92 67 51 51 34 28 42 42 25 22 9 9 6 3 3 2 4 2 4 4 3 1 1 1 2 2 1 1 0 0 0 0 1 0 0 1 1 nan nan nan 0 1 1 1 0 1 2 2 3 3 3 4 5 5
nan nan nan nan nan nan 3 13 31 31 38 51 63 85 85 101 87 78 78 54 26 15 15 9 14 9 9 1 1 1 2 3 4 5 5 4 2 1 1 2 1 1 1 nan nan nan nan nan 0 0 0 0 nan nan nan 1 2 2 2 2 1 3 3 4 4 4 5 6 4
nan nan nan nan nan nan nan 0 4 4 12 18 25 42 42 64 69 79 79 73 44 15 15 9 16 14 14 1 1 1 1 2 2 3 3 4 3 1 1 0 1 1 1 nan nan nan nan nan nan nan nan 0 0 0 0 nan 1 1 1 1 2 3 3 5 7 7 4 5 6
nan nan nan nan nan nan nan nan nan nan 0 3 10 15 15 21 19 26 26 37 46 26 26 13 13 13 13 2 0 0 0 nan 0 1 1 1 1 1 1 1 1 1 1 0 0 0 nan nan nan nan 0 0 1 nan nan nan 0 nan nan 0 2 3 3 5 6 6 5 4 5
nan nan nan nan nan nan nan nan nan nan nan nan nan 1 1 0 4 8 8 11 18 34 34 20 14 10 10 5 nan nan nan nan nan nan nan nan nan nan nan nan 0 1 1 1 1 1 0 nan nan nan 0 1 0 nan nan 0 1 1 1 1 1 2 2 2 4 4 4 2 4
nan nan nan nan nan nan nan nan nan nan nan nan nan nan nan nan nan 0 0 1 5 24 24 24 13 10 10 9 5 5 0 nan nan nan nan nan nan nan nan nan nan nan nan nan 0 0 0 0 0 0 0 1 1 nan nan nan 1 3 3 1 1 3 3 2 2 2 2 1 4
nan nan nan nan nan nan nan nan nan nan nan nan nan nan nan nan nan nan nan nan nan 2 2 8 6 3 3 5 4 4 1 0 nan nan nan nan nan nan nan nan nan nan nan nan nan nan 0 0 nan nan nan 1 0 nan nan nan 0 1 1 nan nan 0 0 nan nan nan 0 1 4
nan nan nan nan nan nan nan nan nan nan nan nan nan nan nan nan nan nan nan nan nan nan nan nan 3 4 4 2 nan nan nan nan nan nan nan nan nan nan nan nan nan nan nan nan nan nan nan nan nan nan nan nan nan nan nan nan nan nan nan nan nan nan nan nan nan nan nan 0 2
nan nan nan nan nan nan nan nan nan nan nan nan nan nan nan nan nan nan nan nan nan nan nan nan nan 1 1 2 2 2 nan nan nan nan nan nan nan nan nan nan nan nan nan nan nan nan nan nan nan nan nan nan nan nan nan nan nan nan nan nan nan nan nan nan nan nan 0 2 3
nan nan nan nan nan nan nan nan nan nan nan nan nan nan nan nan nan nan nan nan nan nan nan nan nan nan nan nan 0 0 1 0 nan nan nan nan nan nan nan nan nan nan nan nan nan nan nan nan nan nan nan nan nan nan nan nan nan nan nan nan nan nan nan nan nan nan 1 2 3
nan nan nan nan nan nan nan nan nan nan nan nan nan nan nan nan nan nan nan nan nan nan nan nan nan nan nan nan nan nan 0 1 1 nan nan nan nan nan nan nan nan nan nan nan nan nan nan nan nan nan nan nan nan nan nan nan nan nan nan nan nan nan nan nan 0 0 1 3 3
nan nan nan nan nan nan nan nan nan nan nan nan nan nan nan nan nan nan nan nan nan nan nan nan nan nan nan nan nan nan nan 0 1 0 0 nan nan nan nan nan nan nan nan nan nan nan nan nan nan nan nan nan 0 nan nan nan nan nan nan nan nan 0 0 1 1 1 3 4 4
nan nan nan nan nan nan nan nan nan nan nan nan nan nan nan nan nan nan nan nan nan nan nan nan nan nan nan nan nan nan nan nan nan nan nan nan nan nan nan nan nan nan nan nan nan nan nan nan 0 0 1 1 1 1 1 1 1 3 3 5 4 4 4 4 5 5 5 6 7
nan nan nan nan nan nan nan nan nan nan nan nan nan nan nan nan nan nan nan nan nan nan nan nan nan nan nan nan nan nan nan nan nan nan nan nan nan nan nan nan nan nan nan nan nan nan nan 0 1 1 1 1 1 0 0 1 2 3 3 4 5 5 5 7 8 8 9 10 11
nan nan nan nan nan nan nan nan nan nan nan nan nan nan nan nan nan nan nan nan nan nan nan nan nan nan nan nan nan nan nan nan nan nan nan nan nan nan nan nan nan nan nan nan nan nan 2 3 1 1 1 0 0 1 1 2 3 3 3 4 6 5 5 6 9 9 11 12 12
nan nan nan nan nan nan nan nan nan nan nan nan nan nan nan nan nan nan nan nan nan nan nan nan nan nan nan nan nan nan nan nan nan nan nan nan nan nan nan nan nan nan nan nan nan nan 0 0 0 0 nan 0 0 1 1 1 2 2 2 2 3 5 5 5 8 8 9 10 11
nan nan nan nan nan nan nan nan nan nan nan nan nan nan nan nan nan nan nan nan nan nan nan nan nan nan nan nan nan nan nan nan nan nan nan nan nan nan nan nan nan nan nan nan nan nan nan nan nan nan nan nan 1 0 0 0 1 1 1 2 3 6 6 9 11 11 14 15 14
nan nan nan nan nan nan nan nan nan nan nan nan nan nan nan nan nan nan nan nan nan nan nan nan nan nan nan nan nan nan nan nan nan nan nan nan nan nan nan nan nan nan nan nan nan nan 0 nan nan nan nan 0 1 1 1 0 1 2 2 2 4 9 9 13 15 15 15 13 10
nan nan nan nan nan nan nan nan nan nan nan nan nan nan nan nan nan nan nan nan nan nan nan nan nan nan nan nan nan nan nan nan nan nan nan nan 1 1 1 1 1 1 1 nan nan nan nan nan nan nan 0 1 1 0 0 nan 0 2 2 2 5 7 7 12 15 15 13 10 2
nan nan nan nan nan nan nan nan nan nan nan nan nan nan nan nan nan nan nan nan nan nan nan nan nan nan nan nan nan nan nan nan nan 0 0 1 2 3 3 1 0 0 0 0 nan nan nan nan nan nan 0 0 0 nan nan nan nan 0 0 1 2 3 3 4 5 5 2 6 4
nan nan nan nan nan nan nan nan nan nan nan nan nan nan nan nan nan nan nan nan nan nan nan nan 0 nan nan nan nan nan nan nan nan 1 1 2 3 2 2 0 nan 0 0 0 nan nan nan nan nan nan nan nan nan nan nan nan nan 1 1 1 1 1 1 0 0 0 0 nan 2
nan nan nan nan nan nan nan nan nan nan nan nan nan nan nan nan nan nan nan nan 0 1 1 2 2 0 0 0 3 3 2 nan 0 1 1 2 3 1 1 1 nan 1 1 0 0 0 2 1 nan nan nan nan 0 0 0 1 1 2 2 3 1 0 0 nan 0 0 0 nan 1
nan nan nan nan nan nan nan nan nan nan nan nan nan nan nan nan nan nan nan 0 2 3 3 4 4 4 4 3 6 6 5 1 nan 0 0 2 nan nan nan nan nan 0 0 nan 1 1 2 2 1 1 nan nan 2 5 5 5 3 4 4 4 2 4 4 3 2 2 2 2 3
nan nan nan nan nan nan nan nan nan nan nan nan nan nan nan nan nan nan nan 2 3 3 3 4 4 5 5 5 5 5 5 2 nan nan nan 0 nan nan nan 0 0 0 0 0 1 1 2 2 3 3 2 nan 5 8 8 5 4 3 3 3 4 6 6 7 4 4 4 4 6
nan nan nan nan nan nan nan nan nan nan nan nan nan nan nan nan 0 1 1 4 4 3 3 4 5 5 5 5 4 4 3 2 0 nan nan 1 0 nan nan 0 1 1 1 1 2 2 3 3 3 3 4 2 9 10 10 7 5 5 5 4 6 7 7 9 8 8 6 6 8
nan nan nan nan nan nan nan nan nan nan nan nan nan 0 0 0 1 1 1 2 3 3 3 4 5 5 5 5 5 5 5 4 1 nan nan 0 nan 0 0 0 2 2 2 1 3 3 3 4 3 3 5 5 7 12 12 7 7 6 6 5 7 8 8 9 7 7 7 7 9
0 0 0 nan nan nan nan nan nan nan nan nan 0 0 0 0 nan nan nan 0 2 3 3 4 5 4 4 5 6 6 6 6 5 2 2 1 1 1 1 1 2 3 3 2 3 3 4 4 4 4 6 8 7 6 6 7 7 6 6 6 6 7 7 6 7 7 8 8 9
2 1 1 0 0 0 0 nan nan nan nan 0 1 0 0 0 nan 0 0 1 2 3 3 4 3 4 4 5 6 6 7 7 7 4 4 2 2 1 1 1 2 2 2 2 3 3 3 5 5 5 5 7 7 6 6 6 4 5 5 5 7 9 9 9 9 9 8 9 9
3 3 3 2 1 1 1 1 1 1 0 0 0 0 0 0 0 1 1 1 1 2 2 3 3 4 4 5 6 6 7 4 7 7 7 5 3 2 2 2 3 0 0 2 3 3 3 5 7 7 6 7 0 6 6 6 4 6 6 6 8 8 8 8 9 9 8 8 9
5 4 4 4 3 3 2 2 2 2 1 0 0 nan nan nan 0 nan nan nan 1 2 2 3 4 4 4 4 6 6 9 12 12 9 9 7 5 3 3 3 3 0 0 2 3 3 4 6 7 7 6 4 0 4 4 6 6 7 7 8 7 6 6 7 8 8 7 6 7
8 7 7 6 5 5 4 4 3 3 2 1 nan nan nan nan nan nan nan nan 0 3 3 3 3 3 3 4 4 4 4 5 14 13 13 7 5 4 4 3 3 1 1 2 3 3 3 4 6 6 4 2 1 3 3 4 6 8 8 9 9 7 7 6 6 6 5 4 3
11 11 11 9 7 7 6 6 4 4 3 1 nan nan nan nan nan 0 0 1 2 4 4 3 2 2 2 2 3 3 5 5 5 12 12 7 5 4 4 3 3 1 1 2 3 3 3 4 5 5 3 2 1 2 2 3 3 7 7 10 8 7 7 5 4 4 2 2 1
13 11 11 11 10 10 9 9 7 7 6 2 0 0 0 0 nan nan nan 0 3 4 4 3 2 1 1 1 2 2 4 5 5 5 5 10 5 3 3 3 2 1 1 2 2 2 3 4 5 5 4 1 1 1 1 2 4 6 6 7 6 5 5 4 2 2 2 1 1
16 15 15 15 14 14 12 11 10 10 10 5 2 0 0 0 nan nan nan 1 5 5 5 4 2 1 1 0 1 1 nan 2 3 2 2 5 6 2 2 2 1 0 0 1 2 2 4 4 5 5 4 1 1 1 1 2 5 6 6 5 4 4 4 2 1 1 1 1 1
17 17 17 17 16 16 15 13 12 12 9 6 1 nan nan 0 0 nan nan 1 6 7 7 5 2 1 1 0 0 0 0 0 nan 1 1 1 4 0 0 0 1 0 0 1 2 2 3 5 6 6 5 1 0 1 1 2 3 3 3 2 2 2 2 0 0 0 0 0 2
17 18 18 18 16 16 15 14 12 12 8 6 2 1 1 1 1 1 1 4 8 9 9 6 4 1 1 nan 0 0 nan nan nan nan nan 0 1 nan nan 0 1 0 0 0 2 2 4 5 6 6 6 nan nan 1 1 2 2 2 2 1 1 1 1 0 nan nan 0 0 1